Tracking 17141 objects as of 6-July-2015
HD Live streaming from Space Station

COSMOS 2430

Track COSMOS 2430 now!
COSMOS 2430 is classified as:


NORAD ID: 32268
Int'l Code: 2007-049A
Perigee: 825.6 km
Apogee: 39,505.6 km
Inclination: 65.1 °
Period: 717.0 minutes
Semi major axis: 26536 km
RCS: 3.1623 m2 (large)
Launch date: October 23, 2007
Source: Commonwealth of Independent States (former USSR) (CIS)
Your satellite tracking list
Your tracking list is empty





NASA's NSSDC Master Catalog

Two Line Element Set (TLE):
1 32268U 07049A   15185.11300470 -.00000865  00000-0  00000+0 0  9996
2 32268 065.0763 062.8488 7288036 247.6763 346.3102 02.00832704 56382

Source of the keplerian elements: AFSPC

N2YO: 209